SL-14 DEB, 45288

Orbit data source: Space-Track

SL-14 DEB, 45288 is space debris in LEO originally from a launch on Thu, 15 Aug 1991 UTC launched from the Plesetsk Missile And Space Complex (PKMTR). Debris objects in space refer to the collection of defunct objects orbiting the Earth. Examples of debris include non-operational satellites, rocket bodies, and fragments generated from explosions, collisions, or faulty payload assembly.

Loading next visibility...
Identifier
45288, 1991-056AA
Orbit
LEO
Country
Flag of CISCIS
Related business
Manufacturer
Unknown
Mission
Spacecraft
Bus & Motor
Unknown
Mass
Unknown
Launch date (UTC)
1991-08-15 (35 years ago)
Launch vehicle
Unknown
Launch site
Plesetsk Missile And Space Complex (PKMTR)
Object type
Payload
Rocket body
Debris
Shape & HBR
Unknown shape, 0.1 m
Radar Cross Section
Medium (>0.1 m² and <1 m²)

Expand to show TLE details & history
Last TLE update: 20 hours ago

TLE from 20 hours ago
0 SL-14 DEB
1 45288U 91056AA  26257.10437615  .00006421  00000-0  20464-1 0  9997
2 45288  82.6109 189.8056 0282959  14.6465 346.2629 12.90261714307806
Epoch: 2026-09-14T02:30Z
TLE epoch observation values (Epoch: 2026-09-14T02:30:18.099Z)
Latitude
-0.00008°
Longitude
159.14071°
Altitude
1,092.522 km
Speed
7.406 km/s
True Right ascension
12h 39m 13s
True Declination
0° 00' 00"
Sunlit
Object was in daylight at epoch
Visualization orbit readout
Latitude
Unknown
Longitude
Unknown
Altitude
Unknown
Speed
Unknown
Apparent Right ascension
Unknown
Apparent Declination
Unknown
Sunlit
N/A
Visualization observer readout
Local Sidereal Time
15:16:42
Azimuth
Unknown
Elevation
Unknown
Doppler factor
Unknown
Orbital elements
Apogee altitude
1,514.958 km
Perigee altitude
1,080.565 km
Semi-major axis
7,675.899 km
Eccentricity
0.0283
Inclination
82.6109°
RAAN
189.8056°
Arg. of periapsis
14.6465°
True anomaly
345.46559°
Mean anomaly
346.2629°
Eccentric anomaly
345.86704°
Mean motion
3.22737 °/min
Orbital period
111.55 mins
BSTAR
0.020464
Loading maneuver chart data...
Computing Atmospheric mass density...
Loading historical data...
Loading historical data...
Loading historical data...
Loading historical data...
Loading historical data...
Loading historical data...
Loading historical data...

Documentation

Showing up to 5 results
|